UOSAT 2 (UO-11)

Last updated on Wed Sep 09 2026 00:03:14 GMT+0000 (Coordinated Universal Time)

1 14781U 84021B 26251.44493899 .00001206 00000+0 12776-3 0 9996 2 14781 97.8157 216.1411 0006000 269.5655 90.4875 14.90977336269537
UTC large
Height (km)
Speed (km/s)
/
Latitude / Longitude
Inclination (degrees)
Orbital Period (minutes)
Azimuth
Elevation
Range (km)
Doppler Factor

Next 0 passes for location: London (51.5072 / 0.1276)

No passes found over London.
UOSAT 2 (UO-11)